User: anonymous   Login
Location: Unspecified
(0.0000°N, 0.0000°E)
Time: 13:29:04
(UTC+00:00)
Language:

DUCHIFAT 1 - Orbit

View from above orbital plane
View from above orbital plane
View from above satellite
View from above satellite

Ground track
Ground track

The orbit data is extracted from the following two-line orbital elements,

1 40021U 14033M   18015.70778246 +.00000503 +00000-0 +57847-4 0  9997
2 40021 097.9179 294.1526 0012338 326.8958 033.1486 14.90170126194244
Epoch (UTC): 15 January 2018 16:59:12
Eccentricity: 0.0012338
inclination: 97.9179°
perigee height: 589 km
apogee height: 606 km
right ascension of ascending node: 294.1526°
argument of perigee: 326.8958°
revolutions per day: 14.90170126
mean anomaly at epoch: 33.1486°
orbit number at epoch: 19424

The dashed part of the orbit path shows where the satellite is in the earth's shadow,  

DLR